Location: Brachbach
(49.1847°N, 9.7240°E)
Time: 20:28:07
(UTC+00:00)

Cosmos 2219 Rocket - Pass Details

Date: 18 August 2024
Orbit: 826 x 846 km, 71.0° (Epoch: 09 September)

Event Time Altitude Azimuth Distance (km) Brightness Sun altitude
Exits shadow 23:24:31 84° 302° (WNW) 857 2.1 -28.1°
Drops below altitude 10° 23:30:14 10° 28° (NNE) 2,481 5.4 -28.1°
Sets 23:32:41 0° 29° (NNE) 3,419 6.3 -28.1°
